Flag for Iran Weather past 2 weeks in Mashhad, Iran

Now
54 °F

Clear.


Feels Like: 52 °F
Forecast: 51 / 83 °F
Wind: 7 mph from Northwest

Location: Mashhad Airport

Current Time: Apr 20, 2015 at 5:41:18 AM

Latest Report: Apr 20, 2015 at 5:00 AM


Visibility: 10 mi

Pressure: 29.92 "Hg

Humidity: 67%

Dew point: 43 °F

Location of MashhadLocation

Historic Weather in Mashhad — Graph

°F

Mashhad temperature yesterday

Maximum temperature yesterday: 72 °F (at 3:00 PM)
Minimum temperature yesterday: 52 °F (at 2:30 AM)
Average temperature yesterday: 61 °F

Past Weeks' High & Low Weather Summary

 TemperatureHumidityPressure
High88 °F (Apr 11, 2:00 PM)100% (Apr 7, 4:50 AM)30.24 "Hg (Apr 7, 4:50 AM)
Low43 °F (Apr 7, 4:50 AM)7% (Apr 11, 3:00 PM)29.74 "Hg (Apr 14, 12:00 AM)
Average63 °F50%30.04 "Hg
* Reported Apr 5 5:00 AM — Apr 20 4:30 AM, Mashhad, Weather by CustomWeather, © 2015

Note: Actual official high and low records may vary slightly from our data, if they occured in-between our weather recording intervals... More about our weather records

Advertising

Mashhad weather history for previous 24 hours

 ConditionsComfort  
Time TempWeatherWind HumidityBarometerVisibility
4:30 AM
Mon, Apr 20
52 °FClear.7 mph72%29.92 "Hg10 mi
4:00 AM54 °FClear.7 mph67%29.92 "Hg10 mi
3:30 AM52 °FClear.5 mph72%29.92 "Hg10 mi
3:00 AM54 °FClear.No wind67%29.92 "Hg10 mi
2:30 AM54 °FClear.5 mph67%29.92 "Hg10 mi
2:00 AM54 °FClear.5 mph67%29.92 "Hg10 mi
1:30 AM54 °FClear.7 mph67%29.92 "Hg10 mi
1:00 AM55 °FClear.9 mph67%29.92 "Hg10 mi
12:30 AM57 °FClear.7 mph63%29.92 "Hg10 mi
12:00 AM59 °FClear.9 mph59%29.95 "Hg10 mi
11:30 PM
Sun, Apr 19
59 °FClear.12 mph59%29.95 "Hg10 mi
11:00 PM59 °FClear.9 mph51%29.95 "Hg10 mi
10:30 PM59 °FClear.7 mph48%29.95 "Hg10 mi
10:00 PM61 °FClear.7 mph45%29.95 "Hg10 mi
9:30 PM61 °FClear.9 mph45%29.95 "Hg10 mi
9:00 PM61 °FClear.9 mph45%29.92 "Hg10 mi
8:30 PM64 °FSunny.9 mph40%29.92 "Hg10 mi
8:00 PM64 °FSunny.7 mph40%29.89 "Hg10 mi
7:30 PM66 °FSunny.5 mph35%29.89 "Hg10 mi
7:00 PM68 °FSunny.7 mph33%29.89 "Hg10 mi
6:30 PM70 °FSunny.7 mph31%29.89 "Hg10 mi
6:00 PM72 °FSunny.5 mph31%29.86 "Hg10 mi
5:30 PM72 °FSunny.5 mph31%29.86 "Hg10 mi
4:55 PM72 °FPassing clouds.7 mph29%29.86 "HgN/A
4:30 PM72 °FPassing clouds.7 mph31%29.86 "HgN/A
4:00 PM72 °FPassing clouds.5 mph31%29.86 "HgN/A
3:30 PM72 °FPassing clouds.7 mph31%29.86 "HgN/A
3:00 PM72 °FPassing clouds.5 mph33%29.89 "HgN/A
1:55 PM68 °FPassing clouds.7 mph35%29.89 "HgN/A
12:55 PM68 °FPassing clouds.9 mph35%29.92 "HgN/A
11:55 AM66 °FPassing clouds.No wind37%29.95 "HgN/A
10:55 AM64 °FScattered clouds.5 mph43%29.95 "HgN/A
10:30 AM63 °FScattered clouds.9 mph45%29.95 "HgN/A
10:00 AM61 °FScattered clouds.7 mph52%29.95 "HgN/A
9:30 AM61 °FScattered clouds.74 mph52%29.95 "HgN/A
9:00 AM59 °FPassing clouds.5 mph55%29.95 "HgN/A
8:30 AM59 °FScattered clouds.No wind59%29.95 "HgN/A
7:55 AM57 °FScattered clouds.No wind59%29.95 "HgN/A
7:30 AM54 °FPartly sunny.No wind63%29.95 "HgN/A
7:00 AM54 °FClear.No wind63%29.95 "Hg10 mi
6:30 AM52 °FClear.No wind67%29.95 "Hg10 mi
6:00 AM52 °FPassing clouds.No wind67%29.92 "HgN/A
5:30 AM52 °FPassing clouds.5 mph67%29.92 "HgN/A
5:00 AM52 °FPassing clouds.5 mph67%29.92 "HgN/A
Weather by CustomWeather, © 2015

See weather overviewHow to use our weather pages